Current Version              Previous Version:    01  02  03  04  05  06  07  08  09  10  11  12  13  14  15  16  17  18  19  20  21  22  23  24  25  26  27  28  29  30  
   31  32  33  34  35  36  37  38  39  40  41  42  43  44  45  46  47  48  49  50  51  52  53  54  55  56  57  58  59  60  

[Printable]
207
ASUS44 KFWD 241701
RWRTX
NORTH TEXAS HOURLY WEATHER ROUNDUP
NATIONAL WEATHER SERVICE FORT WORTH TX
1200 PM CDT THU APR 24 2014

NOTE: "FAIR" INDICATES FEW OR NO CLOUDS BELOW 12,000 FEET WITH NO
SIGNIFICANT WEATHER AND/OR OBSTRUCTIONS TO VISIBILITY.

TXZ118-119-241800-
DALLAS/FORT WORTH METROPLEX

CITY           SKY/WX    TMP DP  RH WIND       PRES   REMARKS
DFW AIRPORT    PTSUNNY   79  63  57 SW17      29.79R
DALLAS LOVE    PTSUNNY   78  63  59 SW12      29.79S
FTW MEACHAM    PTSUNNY   76  57  51 NW21G28   29.80R
DAL-EXECUTIVE  CLOUDY    78  64  61 SW8       29.80S
FTW-ALLIANCE   MOSUNNY   75  54  47 NW20G30   29.81R
FTW-NAS-JRB    MOSUNNY   80  54  40 NW24      29.85R
FTW-SPINKS     PTSUNNY   81  63  54 SW15      29.82S
ARLINGTON      PTSUNNY   78  63  59 SW10G18   29.80S
GRAND PRAIRIE  PTSUNNY   77  63  61 SW15G21   29.83R
MESQUITE         N/A     75  64  69 S13G21    29.82R
LANCASTER      PTSUNNY   75  63  65 SW13G18   29.82S
$$

TXZ091>094-102>105-117-120-121-131>134-241800-
NORTH CENTRAL TEXAS

CITY           SKY/WX    TMP DP  RH WIND       PRES   REMARKS
SHRMAN/DENISON PTSUNNY   76  62  60 SW20      29.78R
BRIDGEPORT     SUNNY     73  53  50 NW16G23   29.87R
DENTON         CLOUDY    75  55  49 W21G28    29.80R
MCKINNEY       PTSUNNY   76  62  62 SW18G28   29.79R
GREENVILLE     CLOUDY    73  63  68 S17G24    29.81S
ROCKWALL       PTSUNNY   76  65  67 S18G26    29.80R
TERRELL        CLOUDY    74  66  76 SW18G25   29.82R
WAXAHACHIE     PTSUNNY   76  63  62 SW17G23   29.83R
CLEBURNE       PTSUNNY   81  64  57 W17G23    29.83S
GRANBURY       MOSUNNY   81  50  33 NW17G30   29.84R HAZE
$$

TXZ083>090-098>101-113>116-127>130-139>142-154-155-241800-
WESTERN NORTH TEXAS

CITY           SKY/WX    TMP DP  RH WIND       PRES   REMARKS
WICHITA FALLS  SUNNY     73  44  35 NW25G32   29.86R
ABILENE        SUNNY     73  37  27 N23G31    29.95R
ABILENE-DYESS  SUNNY     73  37  26 N21G29    29.96R
MINERAL WELLS  MOSUNNY   76  50  40 NW20G32   29.85R
STEPHENVILLE   SUNNY     78  44  30 NW20G26   29.89R
COMANCHE       MOSUNNY   80  42  25 N22G29    29.89R
BROWNWOOD      SUNNY     81  39  22 NW21G28   29.90R HAZE
$$

TXZ143>147-156>162-174-175-241800-
CENTRAL TEXAS

CITY           SKY/WX    TMP DP  RH WIND       PRES   REMARKS
WACO           PTSUNNY   78  65  63 S12G22    29.83S
WACO-TSTC      PTSUNNY   77  64  65 S14G23    29.83F
WACO-MCGREGOR  MOSUNNY   79  63  57 S14G20    29.85S
CORSICANA      CLOUDY    76  64  66 SW17G28   29.83F
MEXIA          CLOUDY    73  65  75 S20       29.84S
TEMPLE         MOSUNNY   77  63  61 SW14G21   29.88S
KILLEEN        MOSUNNY   79  63  57 SW12G21   29.85S
KILLEEN-SKYLRK SUNNY     81  59  47 SW10G16   29.84S
HAMILTON       SUNNY     83  56  38 W17G23    29.87R
LAMPASAS       SUNNY     78  65  63 S8        29.86S
$$

TXZ095>097-106>112-122>126-135>138-148>153-164>167-241800-
EAST TEXAS

CITY           SKY/WX    TMP DP  RH WIND       PRES   REMARKS
PARIS          SUNNY     70  61  73 SW20G26   29.81S
MINEOLA        PTSUNNY   75  63  64 S16G22    29.83S
TYLER          PTSUNNY   75  61  61 SW22G32   29.84R
LONGVIEW       PTSUNNY   78  63  59 S21G26    29.83F
ATHENS         CLOUDY    72  63  73 S10G17    29.83S
PALESTINE      CLOUDY    73  62  68 S12G17    29.88S
JACKSONVILLE   PTSUNNY   76  62  61 S12G18    29.87F
NACOGDOCHES    PTSUNNY   73  63  68 SW8       29.89R
LUFKIN         TSTM      76  65  68 S8        29.87R
$$

SUPPLEMENTAL OBSERVATIONS (CENTRAL)

CITY           SKY/WX    TMP DP  RH WIND       PRES   REMARKS
$$

SUPPLEMENTAL OBSERVATIONS (WEST)

CITY           SKY/WX    TMP DP  RH WIND       PRES   REMARKS
$$

SUPPLEMENTAL OBSERVATIONS (EAST)

CITY           SKY/WX    TMP DP  RH WIND       PRES   REMARKS
$$

SUPPLEMENTAL OBSERVATIONS ARE A COLLECTION OF AUTOMATED INSTRUMENTS
THAT ARE MAINTAINED BY A VARIETY OF FEDERAL AND STATE AGENCIES.
CERTAIN ELEMENTS...SUCH AS HUMIDITY VALUES AND SUSTAINED WIND
SPEEDS...MAY BE APPROXIMATED.